Regional Weather Roundup
Issued by NWS Kansas City/Pleasant Hill, MO

Home | Current Version | Previous Version | Graphics & Text | Print | Product List | Glossary Off
Versions: 1 2 3 4 5 6 7 8 9 10 11 12 13 14 15 16 17 18 19 20 21 22 23 24 25 26 27

000
ASUS43 KEAX 260710
RWREAX

WEATHER ROUNDUP FOR EASTERN KANSAS AND NORTHWEST MISSOURI
NATIONAL WEATHER SERVICE KANSAS CITY/PLEASANT HILL MO
200 AM CDT FRI AUG 26 2016

KSZ040-057-103>105-MOZ028-029-037-043-260800-
...KANSAS CITY METROPOLITAN AREA...

CITY           SKY/WX    TMP DP  RH WIND       PRES   REMARKS
K.C. INTL      LGT RAIN  70  63  78 NE7       30.10S
K.C. DOWNTOWN  LGT RAIN  71  68  90 NE7       30.08F
LEES SUMMIT    RAIN      70  69  97 NE10      30.10F
OLATHE - IXD   TSTM      71  70  96 E5        30.09F
OLATHE - OJC   LGT RAIN  70  70 100 NE7       30.09S FOG
LAWRENCE       MOCLDY    70  67  90 NE10      30.08F

$$

MOZ001>008-011>017-020>025-030>033-038>040-044>046-053-054-260800-
...NORTHERN AND CENTRAL MISSOURI...

CITY           SKY/WX    TMP DP  RH WIND       PRES   REMARKS
ST. JOSEPH     FAIR      66  63  90 VRB5      30.11S FOG
WHITEMAN AFB   MOCLDY    71  71 100 N7        30.08R
CLINTON        NOT AVBL
SEDALIA        CLOUDY    73  70  90 NE5       30.08R
WARSAW         NOT AVBL
CHILLICOTHE      N/A     69  65  86 N3        30.12S
KIRKSVILLE     CLOUDY    69  65  86 NE6       30.12S

$$

MOZ041-047>049-056>058-063>065-088>090-097-260800-
...EASTERN AND SOUTHERN MISSOURI...

CITY           SKY/WX    TMP DP  RH WIND       PRES   REMARKS
ST. LOUIS INTL MOCLDY    77  70  79 E5        30.07F
SPIRIT OF STL  FAIR      74  71  91 E5        30.05F
COLUMBIA       FAIR      74  73  97 CALM      30.08F
JEFFERSON CITY FAIR      73  72  96 SE3       30.06F
ROLLA          FAIR      71  68  90 SE3       30.08F
OSAGE BEACH    FAIR      69  68  96 SE6       30.08F
SPRINGFIELD    FAIR      74  69  85 S7        30.07F
JOPLIN         FAIR      71  68  90 S7        30.07F
WEST PLAINS    FAIR      76  71  85 W3        30.11F

$$

IAZ060-094-KSZ022-034>040-054-083-096-NEZ052-066-093-260800-
...KANSAS...SOUTHEAST NEBRASKA AND IOWA...

CITY           SKY/WX    TMP DP  RH WIND       PRES   REMARKS
TOPEKA         CLOUDY    70  64  81 NE3       30.10S
MANHATTAN      FAIR      66  62  87 N5        30.09F
EMPORIA        HVY RAIN  69  68  96 CALM      30.10S FOG
CHANUTE        MOCLDY    74  68  81 W10       30.11R
WICHITA        CLOUDY    72  68  87 E10       30.07F
OMAHA          FAIR      60  57  89 N5        30.15S
LINCOLN        FAIR      60  58  92 N5        30.16F
FALLS CITY     FAIR      64  61  90 N3        30.11F
LAMONI           N/A     62  62 100 N5        30.14R
DES MOINES     FAIR      65  62  90 N3        30.13S

$$





USA.gov is the U.S. government's official web portal to all federal, state and local government web resources and services.